Regional Weather Roundup
Issued by NWS

Home | Current Version | Previous Version | Graphics & Text | Print | Product List | Glossary On
Versions: 1 2 3 4 5 6 7 8 9 10 11 12 13 14 15 16 17 18 19 20 21 22 23 24 25 26 27 28 29 30 31 32 33 34 35 36 37 38 39 40 41 42 43 44 45 46 47 48 49 50
202
ASUS43 KFSD 231910
RWRSD

WEATHER ROUNDUP FOR SOUTH DAKOTA
NATIONAL WEATHER SERVICE SIOUX FALLS SD
200 PM CDT SUN APR 23 2017

NOTE: "FAIR" INDICATES FEW OR NO CLOUDS BELOW 12,000 FEET WITH NO
SIGNIFICANT WEATHER AND/OR OBSTRUCTIONS TO VISIBILITY.


SDZ001>005-009-010-012>017-232000-
NORTHWEST AND NORTH CENTRAL SOUTH DAKOTA

CITY           SKY/WX    TMP DP  RH WIND       PRES   REMARKS
BUFFALO          N/A     45  44  97 NE10      29.75F
FAITH            N/A     60  40  47 NE8       29.76F
MOBRIDGE       MOSUNNY   58  38  47 E15G23    29.81F
$$

SDZ012>016-024>037-041>051-057-063-072>074-232000-
SOUTHWEST AND SOUTH CENTRAL SOUTH DAKOTA

CITY           SKY/WX    TMP DP  RH WIND       PRES   REMARKS
RAPID CTY ARPT SUNNY     65  40  39 N9        29.76F
PIERRE         CLOUDY    72  37  28 S18G26    29.74F
CUSTER         SUNNY     60  26  27 SW10      29.80F
ELLSWORTH AFB  SUNNY     63  41  45 N9        29.76  HAZE
PHILIP         CLOUDY    72  39  30 W18       29.73F
PINE RIDGE     CLOUDY    71  36  27 SW18G25   29.77F
SPEARFISH      FAIR      57  45  62 VRB7      29.79F
WINNER         FAIR      69  31  24 S30G39    29.81F
$$

SDZ004>011-016>023-039-040-232000-
NORTHEAST SOUTH DAKOTA

CITY           SKY/WX    TMP DP  RH WIND       PRES   REMARKS
ABERDEEN       CLOUDY    62  34  35 S14G22    29.87F
WATERTOWN      CLOUDY    65  34  31 S20G28    29.90F
BROOKINGS      MOSUNNY   68  32  26 S23G29    29.92
SISSETON         N/A     60  42  51 SE9       29.92F
$$

SDZ017-020-022-023-036>040-048>070-232000-
SOUTHEAST SOUTH DAKOTA

CITY           SKY/WX    TMP DP  RH WIND       PRES   REMARKS
SIOUX FALLS    PTSUNNY   69  39  33 S16G26    29.94F
HURON          PTSUNNY   67  34  29 S18G28    29.87F
CHAMBERLAIN    CLOUDY    71  36  28 S21G29    29.84F
MITCHELL       CLOUDY    70  29  21 S22G29    29.88F
YANKTON        PTSUNNY   70  32  24 S21G29    29.93F
$$

ABBREVIATIONS USED IN REMARKS
   TC - TEMPERATURE IN CELSIUS
  WCI - WIND CHILL INDEX
   HX - HEAT INDEX
  VSB - VISIBILITY





USA.gov is the U.S. government's official web portal to all federal, state and local government web resources and services.